Location: ??
(34.9170°N, 135.5016°E)
Time: 16:27:50
(UTC+00:00)

Courier 1B - Visible Passes

Search period start: 26 February 2021 00:00
Search period end: 08 March 2021 00:00
Orbit: 962 x 1209 km, 28.3° (Epoch: 25 February)

Date Brightness Start Highest point End Pass type
(mag) Time Alt. Az. Time Alt. Az. Time Alt. Az.
04 Mar 9.7 20:17:08 10° S 20:20:43 15° SSE 20:24:16 10° ESE visible
05 Mar 9.9 19:25:26 10° SSE 19:27:10 11° SSE 19:28:53 10° SE visible
06 Mar 9.2 20:21:39 10° SSW 20:26:50 24° SSE 20:31:54 10° ESE visible
07 Mar 9.4 19:29:21 12° SSW 19:33:15 20° SSE 19:37:46 10° ESE visible
